Temp
56 57 57 57 57 57 56 55 56 55 55 56 56 57 56 57 52 51 51 51 51 50 49 48 43 42 40 40 40 41 41 41 41 41 41 41 42 40 39 39 40 42
53 55 55 56 56 56 56 56 55 55 55 55 55 56 56 53 51 51 51 49 49 49 49 48 47 46 45 43 43 42 43 40 42 41 41 40 41 40 39 39 39 41
53 53 54 54 55 54 54 54 54 54 54 55 54 54 47 51 50 50 50 50 49 48 47 46 45 44 42 42 42 40 39 40 39 38 38 38 41 40 40 40 39 39
52 53 54 54 54 55 54 53 53 53 53 52 52 52 51 48 49 48 48 46 48 48 47 43 43 42 40 37 37 41 39 39 40 38 37 38 39 40 39 38 39 39
53 53 53 54 54 54 54 53 53 52 52 52 52 50 49 48 47 47 47 46 47 46 46 45 44 44 42 42 40 40 40 41 38 37 38 38 38 37 37 37 37 37
52 53 53 52 53 53 52 52 52 51 51 49 49 49 49 47 47 47 45 45 44 45 44 45 44 43 42 42 41 42 42 40 38 36 36 36 37 37 36 36 36 35
51 51 50 50 51 51 51 51 51 51 51 51 49 47 48 46 46 46 46 45 45 44 44 43 42 41 40 38 38 38 39 39 36 35 36 37 37 35 34 34 34 34
50 50 50 50 49 49 50 51 51 49 49 48 47 47 47 46 46 45 45 45 44 44 44 43 41 40 37 38 37 38 36 36 35 35 35 34 35 33 33 33 33 32
48 49 48 47 47 49 48 49 49 48 48 47 47 46 45 46 44 45 43 44 44 43 43 42 41 40 40 39 39 37 36 35 35 34 34 34 33 33 32 32 31 31
47 47 46 46 46 47 48 47 47 46 45 45 45 45 43 44 44 44 43 43 42 42 42 41 40 39 39 40 38 38 38 36 35 34 34 33 33 32 31 30 30 30
45 46 45 45 46 47 46 45 45 45 43 43 44 43 43 43 42 43 42 41 41 40 40 39 39 39 38 38 38 38 37 35 34 33 33 33 32 32 30 30 29 29
44 45 43 44 44 46 45 44 44 43 40 40 39 41 38 40 40 38 38 40 41 40 40 39 39 38 37 35 35 36 35 34 33 33 33 32 31 31 30 30 29 29
44 43 43 44 43 42 42 40 39 39 39 38 38 38 37 37 37 37 37 37 39 38 37 37 37 36 35 34 34 34 33 32 32 31 31 30 30 30 30 29 29 29
41 41 39 41 39 39 39 37 38 36 37 36 36 35 36 35 35 36 36 36 36 36 36 35 34 34 34 33 33 32 31 30 30 29 28 28 27 28 28 27 27 27
38 37 37 37 36 37 36 35 35 34 35 35 35 35 35 35 36 36 35 35 35 35 34 34 33 33 33 32 30 29 30 29 29 28 27 27 26 26 26 26 26 25
36 35 34 34 34 33 33 33 33 33 33 33 33 34 34 34 34 34 34 33 33 33 32 32 32 32 31 29 30 29 28 28 27 27 26 26 25 24 24 24 23 24
34 33 32 32 32 32 32 31 31 31 31 32 32 33 33 32 33 32 32 33 31 30 29 29 29 30 28 29 29 29 28 28 27 26 26 25 24 23 22 22 22 22
33 31 30 30 30 30 29 30 30 30 30 30 31 31 32 32 31 30 30 31 30 29 29 29 29 28 28 29 29 29 28 28 27 26 25 24 24 23 23 22 21 21
31 30 29 29 29 28 28 29 28 28 28 29 29 30 31 30 29 29 28 29 29 28 28 28 28 27 28 29 29 29 28 27 28 26 25 25 24 23 22 21 21 21
29 29 28 28 28 28 28 27 27 27 29 30 30 30 28 28 28 28 28 27 27 27 27 28 27 26 27 28 29 28 28 27 27 25 25 24 23 22 22 21 21 21
29 28 28 28 27 27 27 27 26 28 27 29 30 29 28 27 28 27 27 26 27 27 28 27 26 25 27 28 29 29 28 27 26 24 25 23 23 23 22 22 21 21
29 28 28 27 26 26 26 26 26 27 27 29 30 30 30 30 30 29 27 26 26 26 26 25 25 25 26 27 28 28 28 25 25 24 24 23 22 22 22 22 22 22
29 28 28 26 26 25 25 26 26 27 28 30 28 29 28 28 28 28 28 26 25 25 24 25 24 24 25 27 28 28 27 25 24 24 23 21 21 21 22 22 22 22
29 28 28 27 27 26 26 27 28 29 28 29 28 28 28 28 28 28 27 27 25 24 24 24 23 24 25 26 27 28 26 24 23 23 21 21 20 21 22 22 21 20
29 29 29 28 27 27 27 27 28 28 29 29 29 29 28 28 27 27 26 25 24 23 23 23 23 23 24 25 27 28 26 24 23 22 20 20 20 19 21 21 21 20
30 28 28 28 27 27 27 27 29 29 28 28 28 29 28 29 28 27 25 24 23 22 22 22 22 23 24 25 26 27 26 24 24 22 20 20 20 20 20 20 20 20
MSLP
1015.44 1015.44 1015.52 1015.60 1015.60 1015.52 1015.60 1015.88 1016.04 1016.28 1016.36 1016.44 1016.52 1016.52 1016.64 1016.64 1017.20 1017.44 1017.64 1017.76 1017.80 1017.80 1017.88 1018.00 1018.20 1018.28 1018.36 1018.40 1018.40 1018.32 1018.20 1018.24 1018.28 1018.32 1018.48 1018.64 1018.56 1018.56 1018.60 1018.60 1018.68 1018.72
1015.08 1015.12 1015.20 1015.32 1015.32 1015.36 1015.36 1015.48 1015.68 1015.92 1016.04 1016.20 1016.24 1016.40 1016.56 1016.88 1017.16 1017.40 1017.52 1017.68 1017.80 1017.80 1017.80 1017.88 1017.96 1018.04 1018.12 1018.08 1018.20 1018.24 1018.12 1018.12 1018.16 1018.28 1018.44 1018.52 1018.48 1018.48 1018.44 1018.44 1018.48 1018.52
1014.60 1014.64 1014.76 1014.88 1014.84 1014.96 1015.16 1015.32 1015.48 1015.68 1015.80 1015.88 1016.08 1016.24 1016.52 1016.92 1017.12 1017.32 1017.44 1017.56 1017.64 1017.68 1017.80 1017.80 1017.92 1018.00 1018.04 1018.04 1018.12 1018.12 1018.04 1018.08 1018.12 1018.20 1018.40 1018.40 1018.40 1018.36 1018.28 1018.36 1018.44 1018.56
1014.12 1014.12 1014.20 1014.40 1014.56 1014.72 1014.92 1015.08 1015.28 1015.40 1015.60 1015.80 1015.96 1016.08 1016.40 1016.92 1017.12 1017.28 1017.36 1017.56 1017.52 1017.60 1017.76 1017.84 1017.96 1018.08 1018.20 1018.24 1018.32 1018.08 1018.00 1018.08 1018.04 1018.12 1018.28 1018.20 1018.20 1018.24 1018.28 1018.32 1018.36 1018.40
1013.76 1013.96 1014.04 1014.16 1014.32 1014.52 1014.72 1014.84 1014.88 1015.04 1015.24 1015.48 1015.76 1016.04 1016.32 1016.64 1016.96 1017.08 1017.24 1017.40 1017.48 1017.52 1017.56 1017.68 1017.76 1017.80 1018.00 1018.08 1018.20 1017.96 1017.92 1017.88 1018.04 1018.20 1018.12 1018.08 1018.12 1018.36 1018.40 1018.40 1018.40 1018.44
1013.44 1013.56 1013.76 1013.96 1014.12 1014.36 1014.48 1014.52 1014.60 1014.80 1015.04 1015.36 1015.64 1015.92 1016.08 1016.40 1016.68 1016.88 1017.04 1017.20 1017.32 1017.40 1017.48 1017.52 1017.56 1017.68 1017.84 1017.84 1018.00 1017.84 1017.76 1017.68 1017.80 1018.12 1018.08 1018.04 1018.08 1018.24 1018.48 1018.48 1018.48 1018.52
1013.16 1013.32 1013.52 1013.68 1013.88 1014.00 1014.12 1014.24 1014.36 1014.56 1014.72 1015.00 1015.48 1015.80 1015.92 1016.20 1016.44 1016.68 1016.84 1017.00 1017.12 1017.28 1017.36 1017.40 1017.48 1017.60 1017.68 1017.80 1017.80 1017.72 1017.76 1017.76 1017.88 1018.08 1018.04 1017.88 1017.92 1018.32 1018.56 1018.64 1018.56 1018.56
1013.04 1013.08 1013.24 1013.44 1013.60 1013.68 1013.80 1013.84 1014.04 1014.36 1014.60 1014.92 1015.32 1015.52 1015.76 1015.96 1016.20 1016.48 1016.68 1016.84 1016.96 1017.08 1017.20 1017.28 1017.36 1017.52 1017.64 1017.68 1017.72 1017.76 1017.88 1017.96 1018.04 1018.04 1018.00 1017.96 1018.08 1018.28 1018.44 1018.56 1018.56 1018.60
1012.92 1012.96 1013.12 1013.32 1013.48 1013.44 1013.52 1013.56 1013.84 1014.20 1014.52 1014.76 1015.00 1015.28 1015.60 1015.72 1015.92 1016.24 1016.48 1016.68 1016.80 1016.88 1017.04 1017.16 1017.24 1017.36 1017.44 1017.52 1017.60 1017.68 1017.76 1017.88 1017.92 1017.96 1017.92 1017.96 1018.04 1018.12 1018.32 1018.44 1018.56 1018.60
1012.76 1012.76 1012.92 1013.04 1013.12 1013.08 1013.24 1013.48 1013.76 1014.08 1014.40 1014.52 1014.72 1015.00 1015.32 1015.56 1015.76 1016.04 1016.32 1016.52 1016.60 1016.76 1016.88 1016.96 1017.12 1017.20 1017.28 1017.36 1017.44 1017.52 1017.60 1017.64 1017.76 1017.84 1017.84 1017.88 1017.96 1018.08 1018.28 1018.40 1018.44 1018.56
1012.64 1012.72 1012.76 1012.84 1012.84 1012.80 1013.04 1013.36 1013.64 1013.88 1014.20 1014.40 1014.56 1014.92 1015.20 1015.44 1015.76 1015.96 1016.24 1016.40 1016.52 1016.56 1016.68 1016.84 1016.96 1017.04 1017.16 1017.28 1017.36 1017.40 1017.52 1017.60 1017.72 1017.84 1017.92 1017.96 1018.04 1018.12 1018.24 1018.32 1018.40 1018.40
1012.52 1012.56 1012.64 1012.72 1012.84 1012.84 1013.00 1013.28 1013.52 1013.76 1014.08 1014.36 1014.56 1014.88 1015.24 1015.40 1015.64 1015.88 1016.04 1016.12 1016.24 1016.40 1016.56 1016.72 1016.88 1017.00 1017.12 1017.20 1017.32 1017.44 1017.52 1017.64 1017.80 1017.88 1017.92 1018.00 1018.08 1018.16 1018.28 1018.32 1018.40 1018.44
1012.52 1012.60 1012.68 1012.80 1012.84 1012.92 1013.08 1013.36 1013.64 1013.88 1014.16 1014.44 1014.68 1014.92 1015.20 1015.40 1015.64 1015.76 1015.84 1016.00 1016.16 1016.32 1016.52 1016.64 1016.80 1016.96 1017.08 1017.20 1017.28 1017.40 1017.52 1017.68 1017.80 1017.92 1018.04 1018.12 1018.20 1018.24 1018.32 1018.40 1018.44 1018.52
1012.60 1012.64 1012.76 1012.88 1012.96 1013.12 1013.40 1013.68 1013.96 1014.16 1014.40 1014.56 1014.80 1015.04 1015.24 1015.40 1015.52 1015.64 1015.80 1015.96 1016.12 1016.24 1016.40 1016.56 1016.76 1016.92 1017.00 1017.16 1017.28 1017.40 1017.56 1017.72 1017.76 1017.96 1018.20 1018.32 1018.44 1018.48 1018.52 1018.64 1018.68 1018.68
1012.96 1012.96 1013.04 1013.12 1013.28 1013.44 1013.68 1013.92 1014.16 1014.36 1014.52 1014.68 1014.88 1014.96 1015.12 1015.20 1015.40 1015.60 1015.76 1015.92 1016.04 1016.16 1016.32 1016.48 1016.64 1016.80 1016.88 1017.04 1017.24 1017.48 1017.56 1017.72 1017.84 1018.00 1018.16 1018.36 1018.52 1018.60 1018.68 1018.80 1018.88 1018.88
1013.20 1013.28 1013.36 1013.44 1013.52 1013.64 1013.76 1014.00 1014.20 1014.40 1014.56 1014.68 1014.80 1014.84 1014.96 1015.16 1015.40 1015.52 1015.64 1015.76 1015.96 1016.12 1016.24 1016.40 1016.48 1016.60 1016.80 1017.00 1017.08 1017.20 1017.44 1017.60 1017.84 1018.04 1018.20 1018.32 1018.52 1018.80 1018.96 1019.00 1019.08 1019.08
1013.44 1013.44 1013.60 1013.64 1013.76 1013.84 1014.00 1014.16 1014.36 1014.48 1014.64 1014.72 1014.80 1014.88 1015.04 1015.20 1015.32 1015.48 1015.52 1015.64 1015.84 1016.00 1016.16 1016.24 1016.36 1016.40 1016.72 1016.96 1017.08 1017.20 1017.28 1017.44 1017.68 1017.92 1018.16 1018.40 1018.64 1018.80 1018.96 1019.12 1019.24 1019.36
1013.56 1013.60 1013.68 1013.76 1013.92 1014.00 1014.16 1014.32 1014.44 1014.52 1014.56 1014.68 1014.80 1014.96 1015.08 1015.16 1015.32 1015.48 1015.56 1015.64 1015.84 1016.00 1016.12 1016.12 1016.20 1016.36 1016.64 1016.84 1017.00 1017.12 1017.24 1017.36 1017.56 1017.80 1018.08 1018.32 1018.52 1018.72 1018.88 1019.12 1019.32 1019.44
1013.60 1013.64 1013.72 1013.88 1014.04 1014.16 1014.32 1014.44 1014.52 1014.56 1014.64 1014.76 1014.84 1014.92 1015.04 1015.28 1015.44 1015.60 1015.68 1015.76 1015.92 1016.00 1016.08 1016.08 1016.12 1016.32 1016.56 1016.68 1016.84 1017.04 1017.20 1017.36 1017.40 1017.68 1017.92 1018.08 1018.32 1018.56 1018.76 1019.00 1019.20 1019.40
1013.68 1013.72 1013.76 1013.92 1014.12 1014.32 1014.40 1014.52 1014.60 1014.64 1014.64 1014.72 1014.88 1015.04 1015.24 1015.36 1015.48 1015.56 1015.68 1015.76 1015.88 1015.96 1016.00 1016.04 1016.08 1016.24 1016.48 1016.60 1016.76 1016.92 1017.16 1017.36 1017.40 1017.64 1017.72 1017.92 1018.20 1018.44 1018.68 1018.88 1018.96 1019.12
1013.64 1013.68 1013.76 1013.92 1014.20 1014.36 1014.48 1014.56 1014.64 1014.68 1014.76 1014.76 1014.80 1015.00 1015.16 1015.24 1015.28 1015.40 1015.48 1015.60 1015.76 1015.88 1015.88 1016.04 1016.12 1016.24 1016.44 1016.52 1016.64 1016.84 1017.12 1017.40 1017.64 1017.84 1017.88 1018.04 1018.24 1018.44 1018.60 1018.80 1018.96 1019.00
1013.64 1013.68 1013.76 1013.92 1014.20 1014.36 1014.48 1014.56 1014.68 1014.72 1014.80 1014.68 1014.64 1014.72 1014.84 1014.92 1014.92 1015.00 1015.24 1015.44 1015.60 1015.76 1015.88 1016.00 1016.16 1016.28 1016.40 1016.48 1016.56 1016.68 1016.96 1017.32 1017.60 1017.84 1017.92 1018.08 1018.32 1018.52 1018.72 1018.88 1019.04 1019.08
1013.96 1013.92 1013.88 1013.96 1014.16 1014.28 1014.40 1014.48 1014.60 1014.64 1014.68 1014.64 1014.80 1014.72 1014.76 1014.76 1014.76 1014.76 1014.92 1015.24 1015.48 1015.64 1015.80 1015.92 1016.08 1016.24 1016.32 1016.36 1016.44 1016.52 1016.76 1017.12 1017.44 1017.68 1017.84 1018.08 1018.28 1018.52 1018.76 1018.92 1019.04 1019.16
1013.96 1014.04 1014.04 1014.04 1014.12 1014.12 1014.08 1014.08 1014.16 1014.28 1014.48 1014.52 1014.68 1014.72 1014.76 1014.80 1014.84 1014.92 1015.04 1015.16 1015.36 1015.48 1015.56 1015.76 1015.92 1016.08 1016.24 1016.28 1016.36 1016.32 1016.60 1016.96 1017.28 1017.56 1017.88 1018.00 1018.24 1018.48 1018.60 1018.88 1019.08 1019.24
1013.88 1013.96 1013.96 1014.00 1014.08 1014.08 1014.00 1014.00 1014.00 1014.04 1014.08 1014.28 1014.44 1014.44 1014.60 1014.76 1014.96 1015.04 1015.16 1015.28 1015.36 1015.36 1015.48 1015.68 1015.76 1015.92 1016.04 1016.12 1016.16 1016.12 1016.48 1016.80 1017.04 1017.32 1017.72 1017.84 1018.04 1018.40 1018.60 1018.80 1019.16 1019.40
1013.80 1013.92 1013.92 1013.96 1014.04 1014.08 1014.08 1014.16 1014.12 1014.12 1014.12 1014.20 1014.24 1014.24 1014.36 1014.48 1014.68 1014.72 1015.00 1015.16 1015.36 1015.52 1015.60 1015.60 1015.68 1015.72 1015.84 1015.92 1015.92 1015.96 1016.24 1016.60 1016.80 1017.00 1017.24 1017.48 1017.72 1017.96 1018.36 1018.68 1019.04 1019.32
Wind_Speed
9 8 8 8 8 7 7 7 6 6 6 6 6 6 6 4 3 4 4 4 4 4 4 3 2 2 1 2 2 2 2 3 3 3 3 3 3 5 6 7 7 7
11 10 8 7 7 7 7 7 7 7 7 7 6 6 4 3 3 4 4 4 4 5 4 4 4 4 4 3 4 2 2 2 4 2 4 5 4 4 5 6 6 6
10 10 11 11 9 9 8 7 6 6 7 7 6 5 3 3 3 4 4 5 5 5 4 4 4 4 3 3 3 3 2 2 3 2 3 4 4 4 4 3 3 6
11 11 10 10 9 8 7 7 7 6 6 6 6 5 4 3 4 4 5 5 5 5 4 4 4 3 3 2 2 3 3 2 2 2 2 2 3 3 3 3 3 4
9 9 8 8 8 7 7 8 8 8 7 7 5 5 5 5 5 5 5 5 5 5 5 5 5 4 4 4 4 3 3 3 2 3 3 3 3 2 2 2 3 4
9 8 8 8 8 8 8 9 8 8 7 7 6 5 5 6 6 6 6 6 5 5 5 5 5 4 4 5 5 5 4 3 2 3 3 4 3 3 2 3 3 4
9 9 10 8 9 9 9 9 8 8 7 6 6 6 6 7 7 7 7 6 6 6 6 6 5 5 4 3 3 3 3 3 2 3 4 4 3 3 2 3 4 4
9 8 8 8 10 9 10 9 8 8 7 7 7 7 7 7 7 6 6 7 7 7 6 6 5 5 3 3 4 4 4 2 3 4 4 3 2 4 4 4 4 4
8 8 8 9 10 9 10 9 8 7 7 8 8 7 7 7 7 7 7 7 7 6 6 6 6 6 5 5 5 4 4 4 4 4 5 5 5 5 5 4 5 5
8 8 9 10 10 10 10 8 7 7 7 8 8 7 7 7 7 7 7 7 7 7 7 6 6 6 6 6 6 6 6 5 5 5 4 4 5 5 5 5 5 5
8 7 8 10 10 9 9 8 8 8 7 8 8 7 7 7 6 6 7 7 7 7 7 7 6 6 6 6 5 5 6 5 4 4 4 4 4 5 5 5 5 6
7 8 9 9 8 8 8 8 7 8 5 5 5 7 5 4 6 5 5 8 7 7 6 6 6 6 6 4 5 5 4 4 4 4 4 5 5 5 5 5 6 5
6 6 6 7 6 5 4 4 4 4 4 4 4 5 5 5 5 5 5 5 5 4 5 5 5 4 5 4 4 5 5 5 5 5 4 4 4 4 5 5 5 5
3 3 3 3 3 3 3 2 2 3 3 3 4 5 5 5 6 6 5 4 5 5 5 4 4 5 5 5 5 5 5 5 5 5 4 4 4 4 4 4 4 4
3 2 2 2 2 2 2 3 3 3 4 4 4 5 5 6 5 5 5 5 5 5 5 5 5 6 5 5 5 5 5 5 5 5 5 5 5 4 4 4 4 3
2 1 1 2 2 3 4 4 4 5 5 5 6 6 6 5 5 6 6 6 6 6 6 5 6 5 5 8 7 6 6 5 4 5 5 5 5 5 4 4 3 3
2 1 2 3 4 3 3 5 5 5 5 5 6 5 5 5 6 6 7 6 7 7 6 6 5 4 7 10 10 9 7 6 6 6 5 5 5 5 6 6 4 4
2 2 3 3 3 4 4 4 5 5 6 6 5 6 6 5 6 6 6 6 5 5 6 6 5 5 10 11 11 12 9 6 6 6 6 6 6 5 5 5 6 5
2 3 3 4 4 4 4 4 5 5 5 5 6 6 5 6 5 5 6 5 5 6 6 6 5 8 11 12 12 13 13 8 6 6 7 7 7 7 6 6 6 6
3 3 4 4 3 4 4 5 5 6 6 5 5 5 5 5 5 6 5 6 6 6 6 5 5 8 12 12 13 14 13 11 5 7 6 6 7 7 6 7 8 8
3 3 3 3 4 4 4 5 5 5 5 5 5 6 6 7 7 7 7 6 6 6 6 5 5 9 12 13 14 14 13 10 5 5 5 5 6 6 6 6 6 6
3 3 3 3 4 4 5 5 5 6 6 6 5 5 5 5 6 6 6 7 6 6 6 5 4 10 12 14 15 15 15 7 6 6 6 6 6 5 5 5 5 6
3 3 3 4 4 5 5 6 6 6 6 5 5 5 6 6 6 6 6 6 6 6 6 5 4 9 13 14 15 16 15 7 7 6 5 6 6 6 5 5 5 5
3 3 4 4 5 7 7 6 6 5 6 5 6 6 6 5 4 4 4 5 6 7 7 6 5 8 14 15 16 18 13 7 7 6 6 6 6 6 6 6 5 4
3 4 4 5 5 5 5 6 6 6 5 5 5 5 4 3 4 4 4 4 5 5 7 8 5 7 14 15 17 19 12 7 7 7 7 7 7 7 5 5 6 5
3 3 4 4 5 4 4 4 4 4 5 5 5 5 5 5 5 5 6 5 4 5 5 7 6 6 11 16 18 19 17 8 7 8 9 9 8 8 8 7 6 6
Wind_Direction
223 218 221 219 220 216 203 201 206 215 219 221 232 238 231 221 157 196 211 216 223 222 206 207 200 201 196 207 214 228 224 217 218 212 216 216 225 212 211 208 209 210
220 216 216 219 222 211 208 201 206 210 220 218 222 229 226 205 194 203 211 214 215 224 206 202 202 204 203 212 199 213 221 214 217 186 211 211 227 216 221 215 216 214
217 211 209 213 216 209 199 196 202 207 218 219 209 211 216 193 206 207 211 214 216 215 211 205 197 201 209 218 203 215 224 210 218 189 206 217 223 221 221 209 214 214
217 215 210 212 213 210 197 197 200 204 205 210 208 200 187 178 208 209 213 210 223 214 204 206 196 195 201 208 214 236 226 227 227 192 206 224 224 226 227 209 216 208
219 217 216 216 211 206 198 203 203 200 198 205 195 182 185 187 201 207 208 206 218 215 207 205 199 198 191 203 207 233 219 222 193 202 214 220 217 215 226 210 209 207
224 216 212 211 206 199 204 207 203 194 191 190 192 184 185 185 198 204 204 203 208 213 209 209 203 197 197 207 205 227 224 222 198 186 213 215 209 202 208 220 210 205
225 213 211 205 207 203 207 204 200 192 189 184 172 189 180 185 196 203 203 206 206 209 209 206 202 197 196 203 216 221 221 221 193 196 210 218 199 187 191 207 212 202
224 219 209 206 206 201 205 203 195 187 177 167 183 188 183 186 192 195 199 201 205 208 209 207 203 198 193 205 215 212 212 200 202 202 206 201 182 197 190 197 196 187
224 218 205 204 205 207 205 199 186 175 170 178 185 183 183 188 188 191 195 200 203 206 206 206 204 200 202 205 212 210 209 207 204 205 205 197 199 199 188 184 184 191
221 217 206 205 207 209 201 190 176 175 173 185 183 178 179 184 184 187 193 197 203 202 204 204 202 203 203 208 209 210 212 208 202 205 206 204 201 191 183 182 187 180
224 214 211 209 209 207 194 179 178 178 177 182 176 175 176 173 179 185 191 197 203 203 201 201 201 199 202 205 207 211 211 206 199 198 200 199 198 190 181 184 182 189
220 217 217 216 211 208 189 182 183 183 175 177 173 170 170 176 178 182 193 200 204 204 201 201 198 201 204 203 202 202 204 201 192 196 194 192 192 188 186 186 185 178
229 229 225 222 216 213 194 186 185 180 171 168 169 169 168 175 180 188 196 198 201 197 200 198 197 197 200 199 197 194 193 186 187 187 181 180 181 179 179 182 178 172
254 246 234 228 222 207 195 186 170 164 160 154 160 168 172 177 184 189 189 192 195 196 199 193 192 197 200 194 194 191 183 183 183 174 171 168 167 170 168 166 165 167
279 269 252 236 212 193 188 179 174 166 164 165 171 177 183 190 186 182 184 189 194 196 192 191 193 200 198 187 183 178 179 179 179 173 169 165 165 163 163 155 155 152
292 264 215 208 192 190 182 172 175 175 173 176 179 183 185 180 180 186 188 189 189 191 189 188 197 199 193 192 189 178 177 174 167 173 170 167 160 155 152 151 140 131
280 220 190 206 203 198 185 174 170 170 176 179 184 184 180 178 182 186 191 191 190 186 187 193 196 191 182 195 197 183 171 173 175 175 171 164 168 165 164 160 145 128
248 197 210 207 192 198 173 179 175 180 183 181 181 181 188 188 191 192 189 188 188 190 192 197 200 172 188 198 199 193 182 175 172 170 171 176 174 171 164 156 146 143
230 212 206 206 199 185 184 180 185 185 184 178 189 187 183 188 195 187 195 194 194 192 200 196 198 171 193 199 201 195 189 177 180 169 174 181 175 171 162 159 156 148
214 211 215 206 187 182 187 191 192 197 192 193 186 182 192 195 197 197 194 196 199 201 204 201 189 175 193 200 201 199 193 188 181 170 180 175 172 170 168 168 165 157
213 214 216 193 184 187 192 199 192 198 186 193 192 194 195 198 199 199 200 195 200 201 208 204 201 177 194 201 205 204 196 187 175 171 178 171 170 172 171 170 169 159
232 227 217 188 186 189 196 201 200 202 193 200 199 202 203 204 210 202 197 193 199 194 203 207 195 187 196 203 206 203 196 185 174 177 181 165 168 166 168 163 166 160
260 243 228 200 194 193 202 201 197 204 207 205 206 209 205 208 209 203 200 195 191 193 197 203 187 192 198 203 205 201 194 188 171 182 175 161 166 161 163 168 174 168
258 242 238 217 206 210 207 207 203 209 208 206 210 212 217 216 211 210 205 198 194 199 192 193 195 192 198 205 204 203 189 171 169 177 165 166 160 160 171 174 179 164
255 241 241 232 225 223 216 208 203 206 207 197 210 215 216 202 201 212 209 206 203 197 193 202 199 196 201 206 205 205 190 171 175 175 169 176 167 166 169 170 174 178
264 244 244 237 234 227 224 218 221 215 211 202 209 214 216 214 208 214 208 211 197 196 202 206 206 201 200 205 206 205 193 176 182 181 181 174 171 169 177 184 171 181